METEOSAT 5 (MOP 2) 1 21140U 91015B 10209.91708388 -.00000182 00000-0 10000-3 0 3002 2 21140 011.7819 044.7770 0004113 121.8753 238.2393 00.98452468 73086 NOAA 12 1 21263U 91032A 10210.88229836 +.00000033 +00000-0 +32803-4 0 06521 2 21263 098.7647 224.0350 0013266 045.5085 314.7175 14.25645864998489 METEOSAT 6 1 22912U 93073B 10211.11133784 .00000000 00000-0 10000-3 0 7106 2 22912 009.2936 055.0237 0002069 020.1268 339.9764 01.00268356 59562 NOAA 14 1 23455U 94089A 10210.81717283 +.00000008 +00000-0 +27812-4 0 01444 2 23455 098.8772 291.2619 0010204 112.4184 247.8070 14.13790538803527 HIMAWARI 5 (GMS 5) 1 23522U 95011B 10209.89275395 -.00000301 00000-0 10000-3 0 4590 2 23522 008.4769 058.0875 0008637 351.2586 008.8119 00.99409968 55985 GOES 10 1 24786U 97019A 10210.38062380 .00000000 00000-0 10000-3 0 5380 2 24786 004.5192 068.2112 0008845 015.2396 344.8881 00.99071710 48564 ORBVIEW 2 (SEASTAR) 1 24883U 97037A 10211.46808406 .00000021 00000-0 23475-4 0 1969 2 24883 098.3378 343.0194 0002525 017.8313 342.2968 14.32196223691953 METEOSAT 7 1 24932U 97049B 10210.03585575 .00000062 00000-0 00000+0 0 1462 2 24932 006.1696 064.6351 0000437 081.7186 230.5262 01.00273046 47262 NOAA 15 1 25338U 98030A 10210.91985502 +.00000240 +00000-0 +12152-3 0 04663 2 25338 098.6209 197.0835 0009916 315.2853 044.7519 14.24845035634832 GOES 11 1 26352U 00022A 10211.13656890 .00000089 00000-0 10000-3 0 9367 2 26352 000.3833 261.4511 0004884 266.7085 053.7248 01.00280625 37491 FENGYUN 2B 1 26382U 00032A 10208.71736000 .00000098 00000-0 10000-3 0 2940 2 26382 005.3194 067.4403 0002034 199.8396 160.2480 01.00078459 36928 NOAA 16 1 26536U 00055A 10210.86731351 +.00000021 +00000-0 +36349-4 0 09431 2 26536 099.1691 229.3407 0009912 214.1593 145.8925 14.12570536507855 GOES 12 1 26871U 01031A 10209.34657578 -.00000287 00000-0 10000-3 0 6849 2 26871 000.6524 082.2220 0003000 024.7103 263.9781 01.00269157 33080 FENGYUN 1D 1 27431U 02024B 10211.59416749 -.00000119 00000-0 -44091-4 0 1970 2 27431 098.6689 190.2047 0015120 339.7501 020.3068 14.09296341422337 NOAA 17 1 27453U 02032A 10210.78227151 -.00000028 +00000-0 +58403-5 0 09395 2 27453 098.4282 259.5051 0011982 018.1420 342.0162 14.24176506420763 MSG 1 1 27509U 02040B 10210.92789747 +.00000066 +00000-0 +10000-3 0 05336 2 27509 000.7626 045.6920 0004364 151.2335 094.0153 01.00278872029085 KALPANA 1 (METSAT 1) 1 27525U 02043A 10210.16802211 .00000000 00000-0 10000-3 0 1430 2 27525 000.1176 082.0039 0009535 016.3457 342.8130 01.00269571 28875 INSAT 3A 1 27714U 03013A 10211.67400752 .00000000 00000-0 10000-3 0 2205 2 27714 000.0550 275.2972 0002556 247.5296 121.4919 01.00268106 26795 FENGYUN 2C 1 28451U 04042A 10210.63469045 -.00000359 +00000-0 +10000-3 0 09230 2 28451 002.3912 073.4660 0001549 127.0719 098.2535 01.00258620021134 MTSAT-1R 1 28622U 05006A 10208.55560005 -.00000286 00000-0 10000-3 0 3982 2 28622 000.0264 107.9324 0001919 241.8572 295.3967 01.00270526 19812 NOAA 18 1 28654U 05018A 10210.76485488 +.00000348 +00000-0 +21702-3 0 04246 2 28654 098.9515 156.9104 0013464 295.4549 064.5234 14.11376088267442 MSG 2 1 28912U 05049B 10210.36447918 .00000000 00000-0 10000-3 0 7123 2 28912 000.5473 078.2097 0002661 103.6561 256.3785 01.00275879943688 MTSAT-2 1 28937U 06004A 10210.61994116 -.00000242 +00000-0 +10000-3 0 07924 2 28937 000.0190 029.2452 0003298 068.7723 217.3332 01.00273210016318 FORMOSAT 3A 1 29047U 06011A 10210.68286751 +.00000229 +00000-0 +10942-3 0 02891 2 29047 071.9801 271.8332 0051552 164.5761 195.6966 14.27109530225861 FORMOSAT 3B 1 29048U 06011B 10210.84660464 +.00000390 +00000-0 +17471-3 0 03497 2 29048 071.9674 186.4639 0043959 114.7346 245.8367 14.27166664228361 FORMOSAT 3C 1 29049U 06011C 10210.79074083 +.00000361 +00000-0 +16364-3 0 02990 2 29049 072.0225 337.9356 0035493 174.5958 185.5550 14.27178767224134 FORMOSAT 3D 1 29050U 06011D 10210.80442826 .00001102 00000-0 26646-3 0 5832 2 29050 072.0099 118.9142 0052059 026.9040 333.4763 14.54234457230499 FORMOSAT 3E 1 29051U 06011E 10210.61314121 .00000373 00000-0 16522-3 0 3523 2 29051 072.0043 246.6044 0068629 042.0722 318.5647 14.27173625226696 FORMOSAT 3F 1 29052U 06011F 10210.79970759 +.00000360 +00000-0 +16273-3 0 03752 2 29052 072.0371 309.5858 0040596 143.1876 217.2039 14.27189377225026 GOES 13 1 29155U 06018A 10210.34244536 -.00000250 +00000-0 +10000-3 0 02032 2 29155 000.0494 291.9405 0005357 146.1026 277.2161 01.00279372015330 METOP-A 1 29499U 06044A 10210.72788960 -.00000173 +00000-0 -58999-4 0 01739 2 29499 098.6698 269.4891 0000959 101.6879 258.4408 14.21503077195911 FENGYUN 2D 1 29640U 06053A 10211.80405794 -.00000193 00000-0 10000-3 0 9614 2 29640 000.7581 089.2557 0000798 301.1017 293.6453 01.00275031 13394 FENGYUN 3A 1 32958U 08026A 10211.63912726 .00000167 00000-0 10000-3 0 9217 2 32958 098.7270 283.1778 0001434 060.1339 299.9973 14.19620311112732 NOAA 19 1 33591U 09005A 10210.76219690 +.00000119 +00000-0 +90273-4 0 06228 2 33591 098.7899 151.9815 0014287 164.8034 195.3587 14.11070043075912 GOES 14 1 35491U 09033A 10210.46298638 -.00000091 +00000-0 +10000-3 0 05752 2 35491 000.1691 080.3848 0003907 005.2820 283.3681 01.00271543004017 METEOR-M 1 35865U 09049A 10211.69431510 .00000176 00000-0 10000-3 0 5166 2 35865 098.7546 265.1760 0001572 242.2035 117.8931 14.21830980 44901